OUTPOST MISSION 1 (56226 NORAD) Tracking and Keplerian Element Data

This shows tracking and keplerian element data for the satellite.

Feedback or suggestion? Click here.




ElementValue
Catalog56226
NameOUTPOST MISSION 1
Epoch Orbit7408
Epoch Day286.78205095
Epoch Year2024
RAAN46.9122
Inclination97.5517
Eccentricity0.0007082
Argument of Perigee318.2583
Mean Anonmoly41.8115
Mean Motion15.28018245
Decay Rate0.00027258
L11 56226U 23084BK 24286.78205095 .00027258 00000+0 99687-3 0 9991
L22 56226 97.5517 46.9122 0007082 318.2583 41.8115 15.28018245 74083



Live tracking and technical data element details for OUTPOST MISSION 1 (NORAD 56226). OUTPOST MISSION 1 can be tracked NOW for your location showing map with azimuth and elevation plus other details from your city location.







IsCatalogInMostPopularTable: catalog: 56226, numindb: 39
Update: records affected: 1



GetName: 56226 OUTPOST MISSION 1

Hit Count: updated at: Fri, 06 Dec 2024 10:20:47 GMT